Location: Suhl
(50.5693°N, 10.6787°E)
Time: 02:13:46
(UTC+01:00)

ISS - Visible Passes

Search period start: 19 January 2018 00:00
Search period end: 29 January 2018 00:00
Orbit: 402 x 407 km, 51.6° (Epoch: 19 January)

Date Brightness Start Highest point End Pass type
(mag) Time Alt. Az. Time Alt. Az. Time Alt. Az.
26 Jan -1.8 18:54:39 10° S 18:56:16 18° SSE 18:56:16 18° SSE visible
27 Jan -1.5 18:03:35 10° SSE 18:04:56 12° SE 18:06:16 10° ESE visible
27 Jan -1.5 19:37:39 10° SW 19:38:56 21° SW 19:38:56 21° SW visible
28 Jan -2.9 18:45:32 10° SW 18:48:31 34° SSE 18:48:51 33° SE visible
